Location: Ozark
(37.5425°N, 88.7628°W)
Time: 21:05:49
(UTC+00:00)

Envisat - Pass Details

Date: 26 January 2020
Orbit: 764 x 766 km, 98.1° (Epoch: 23 February)

Event Time Altitude Azimuth Distance (km) Brightness Sun altitude
Rises 23:29:11 0° 157° (SSE) 3,218 6.2 -4.0°
Reaches altitude 10° 23:31:30 10° 154° (SSE) 2,296 5.4 -4.4°
Maximum altitude 23:36:29 62° 74° (ENE) 860 3.0 -5.3°
Drops below altitude 10° 23:41:30 10° 355° (N) 2,310 5.4 -6.3°
Sets 23:43:50 0° 352° (N) 3,240 6.1 -6.7°
